Regional Weather Roundup
Issued by NWS Portland, ME

Home | Current Version | Previous Version | Text Only | Print | Product List | Glossary On
Versions: 1 2 3 4 5 6 7 8 9 10 11 12 13 14 15 16 17 18 19 20 21 22 23 24 25 26 27 28 29 30 31 32 33 34 35 36 37 38 39 40 41 42 43 44 45 46 47 48 49 50
000
ASUS41 KGYX 031610
RWRGYX
WEATHER ROUNDUP FOR MAINE AND NEW HAMPSHIRE
NATIONAL WEATHER SERVICE GRAY ME
1200 PM EDT WED JUN 03 2015

MEZ002-005-006-010-012-015-018-020-021-024-026-027-029-031700-
MAINE

CITY           SKY/WX    TMP DP  RH WIND       PRES   REMARKS
PORTLAND       CLOUDY    53  46  77 E5        30.25S
SANFORD        CLOUDY    55  43  62 N3        30.24F
BAR HARBOR     CLOUDY    50  43  76 N8G18     30.23S
WISCASSET      CLOUDY    56  41  57 N8        30.25S
ROCKLAND       CLOUDY    52  41  66 NW7       30.23S
FRYEBURG       PTSUNNY   58  41  53 MISG      30.24S
LEWISTONAUBURN CLOUDY    54  43  66 NE7       30.25S
AUGUSTA          N/A     53  39  59 N13       30.25S
WATERVILLE     CLOUDY    52  37  58 N10       30.23S
BANGOR         CLOUDY    52  41  66 N13       30.25S
GREENVILLE       N/A     44  38  79 N10       30.22S
MILLINOCKET    CLOUDY    47  39  74 NE10      30.26R
HOULTON        CLOUDY    47  40  76 N8        30.22S
PRESQUE ISLE   CLOUDY    46  37  71 N13       30.25R
FRENCHVILLE    CLOUDY    46  39  76 E6        30.24S
CARIBOU        CLOUDY    47  39  74 NE7       30.24S
$$

NHZ002-005-008-009-011-012-014-031700-
NEW HAMPSHIRE

CITY           SKY/WX    TMP DP  RH WIND       PRES   REMARKS
PORTSMOUTH     CLOUDY    55  45  71 E9        30.23S
ROCHESTER      CLOUDY    58  46  64 VRB3      30.23S
NASHUA         PTSUNNY   59  44  57 VRB6      30.25R
MANCHESTER     PTSUNNY   59  44  57 E6        30.22S
CONCORD        CLOUDY    59  42  53 NW8       30.23S
LACONIA        MOSUNNY   57  41  54 NE7       30.22S
PLYMOUTH       FAIR      59  48  68 W5        30.23F
BERLIN         CLOUDY    52  39  61 N10       30.25S
WHITEFIELD     PTSUNNY   56  39  53 N8        30.25F
JAFFREY        SUNNY     60  42  51 VRB3      30.22S
KEENE          SUNNY     61  43  51 N9        30.23S
LEBANON        SUNNY     59  42  53 NE9       30.25S
MT WASHINGTON  CLOUDY    37  25  60 NE26        N/A
$$

VTZ005-007-008-031700-
VERMONT

CITY           SKY/WX    TMP DP  RH WIND       PRES   REMARKS
ST JOHNSBURY     N/A     57  38  48 MISG      30.24F
MONTPELIER     MOSUNNY   52  38  58 CALM      30.30S
BURLINGTON     MOSUNNY   55  40  56 W7        30.29F
$$

MAZ007-012-024-CTZ003-RIZ002-NYZ038-NYZ072-031700-
SOUTHERN NEW ENGLAND AND NY

CITY           SKY/WX    TMP DP  RH WIND       PRES   REMARKS
BOSTON         CLOUDY    51  47  86 E9        30.27R
WORCESTER      PTSUNNY   59  43  55 NW6       30.23S
NANTUCKET      PTSUNNY   57  46  66 N15       30.24S
PROVIDENCE     PTSUNNY   60  45  57 SE5       30.24S
HARTFORD       MOSUNNY   63  44  50 VRB6      30.23S
ALBANY         MOSUNNY   62  43  49 N12       30.26F
NEW YORK CITY  MOSUNNY   63  49  60 NE8       30.22F
$$

ANZ081-ANZ082-ANZ150-NHZ014-MEZ023>029-031700-
COASTAL MARINE OBSERVATIONS

STATION/POSITION TIME  TEMP    WIND        PRES    WAVE
                       AIR SEA DIR/SP/G            HT/PER
                 (UTC) (F)     (DEG/KT/KT) (MB)    (FT/S)
MOUNT DESERT ROC 1600   47     320/ 16/ 17   N/A
MATINICUS ROCK   1600   47     350/  9/ 10   N/A
ISLE OF SHOALS   1600   49     130/  5/  6   N/A
JEFFREYS LEDGE   1503      49                N/A     3/ 8
CASHES LEDGE BUO 1550   48 50                N/A     3/ 6
GEORGES BANK BUO 1550   48 50  360/ 16/ 17   N/A     4/ 6
$$

.............KEY..............
   WCI - WIND CHILL
   TC  - TEMPERATURE IN CELSIUS
   VSB - VISIBILITY IN MILES
   HX  - HEAT INDEX
   FAIR- INDICATES FEW OR NO CLOUDS BELOW 12,000 FT, WITH NO
         SIGNIFICANT WEATHER AND/OR OBSTRUCTIONS TO VISIBILITY.




USA.gov is the U.S. government's official web portal to all federal, state and local government web resources and services.